Погода в Арроутауне

Новая Зеландия     44°56′18″S   168°49′55″E
темп.,
°C
ветер,
м/с
пор.,
м/с
влажн.,
%
обл.,
%
осадки,
мм/ч
давл.,
гПа
погр.,
м
19 апреля, пн
пн1900:00+7зсз3391100 0.2 101168
03:00+5з3394100 0.1 101362
06:00+5зсз2293100 0.1 101359
09:00+6зсз2392100 0.0 1014117
12:00+7зсз2289100 0.1 1015148
15:00+8зсз239197 0.1 1014177
18:00+8зсз338771 0.2 101452
21:00+5сз229399 0.0 101614
20 апреля, вт
вт2000:00+3сз22923 0.0 101712
03:00+2зсз22921 0.0 101612
06:00+1зсз11921 0.0 101611
09:00+5зсз11835 0.0 101590
12:00+11зсз226340 0.0 1011661
15:00+13з2356100 0.0 10081070
18:00+9з2273100 0.0 100820
21:00+7зсз2290100 0.0 100821
21 апреля, ср
ср2100:00+6з2294100 0.0 100815
03:00+4з12969 0.0 100812
06:00+3з11975 0.0 100812
09:00+6з11888 0.0 100887
12:00+10сз116523 0.0 1007439
15:00+12св015362 0.0 1005972
18:00+8ююв3374100 0.0 100738
21:00+7в2288100 0.1 1010173
22 апреля, чт
чт2200:00+5в229374 0.1 101180
03:00+6всв229167 0.0 101175
06:00+6з1190100 0.0 101120
09:00+8зсз228499 0.0 1011106
12:00+11зсз236540 0.1 1010877
15:00+12сз236098 0.2 1008741
18:00+9сз2280100 0.3 100818
21:00+8сз2287100 0.1 100930
23 апреля, пт
пт2300:00+8сз2288100 0.2 100842
03:00+7ссз2290100 0.3 100816
06:00+7ссз1189100 0.4 100837
09:00+8сз1191100 0.6 100945
12:00+8сз128697 0.9 1009260
15:00+10ссз2371100 0.1 1007692
18:00+8зсз228673 0.4 100852
21:00+7з229066 0.2 100977